| time (UTC) | temp F | wind direction | speed MPH | gust MPH | rain 1hr in | rain 24hr in | rain mn in | humidity % | barometer mb |
| 20260505024544 | 69 | 23 | 16.0 | 25.0 | 0.00 | 0.00 | 0.00 | 31 | 1004.6 |
| 20260505023052 | 69 | 24 | 16.0 | 23.0 | 0.00 | 0.00 | 0.00 | 31 | 1004.2 |
| 20260505021545 | 71 | 42 | 14.0 | 24.0 | 0.00 | 0.00 | 0.00 | 31 | 1003.6 |
| 20260505020040 | 72 | 26 | 14.0 | 20.0 | 0.00 | 0.00 | 0.00 | 31 | 1002.9 |
| 20260505014542 | 73 | 343 | 16.0 | 27.0 | 0.00 | 0.00 | 0.00 | 31 | 1002.1 |
| 20260505013039 | 74 | 36 | 17.0 | 29.0 | 0.00 | 0.00 | 0.00 | 30 | 1001.8 |
| 20260505011548 | 76 | 332 | 18.0 | 27.0 | 0.00 | 0.00 | 0.00 | 31 | 1001.6 |
| 20260505010107 | 77 | 30 | 17.0 | 24.0 | 0.00 | 0.00 | 0.00 | 32 | 1001.4 |
| 20260505004544 | 78 | 336 | 9.0 | 14.0 | 0.00 | 0.00 | 0.00 | 31 | 1001.1 |
| 20260505003045 | 80 | 286 | 1.0 | 2.0 | 0.00 | 0.00 | 0.00 | 25 | 1000.6 |
| 20260505001541 | 81 | 0 | 0.0 | 3.0 | 0.00 | 0.00 | 0.00 | 25 | 1000.5 |
| 20260505000047 | 81 | 291 | 2.0 | 5.0 | 0.00 | 0.00 | 0.00 | 25 | 1000.7 |
| 20260504234544 | 81 | 254 | 3.0 | 7.0 | 0.00 | 0.00 | 0.00 | 22 | 1000.7 |
| 20260504233042 | 83 | 284 | 3.0 | 7.0 | 0.00 | 0.00 | 0.00 | 22 | 1000.8 |
| 20260504231547 | 84 | 292 | 7.0 | 10.0 | 0.00 | 0.00 | 0.00 | 21 | 1000.6 |
| 20260504230047 | 84 | 279 | 7.0 | 13.0 | 0.00 | 0.00 | 0.00 | 22 | 1000.6 |
| 20260504224540 | 84 | 308 | 7.0 | 17.0 | 0.00 | 0.00 | 0.00 | 22 | 1000.5 |
| 20260504223047 | 84 | 300 | 4.0 | 12.0 | 0.00 | 0.00 | 0.00 | 21 | 1000.5 |
| 20260504221558 | 83 | 295 | 5.0 | 11.0 | 0.00 | 0.00 | 0.00 | 20 | 1000.5 |
| 20260504220046 | 84 | 286 | 4.0 | 12.0 | 0.00 | 0.00 | 0.00 | 19 | 1000.5 |
| 20260504214538 | 83 | 290 | 10.0 | 13.0 | 0.00 | 0.00 | 0.00 | 20 | 1000.6 |
| 20260504213057 | 83 | 269 | 8.0 | 15.0 | 0.00 | 0.00 | 0.00 | 21 | 1000.6 |
| 20260504211546 | 85 | 166 | 10.0 | 19.0 | 0.00 | 0.00 | 0.00 | 24 | 1000.8 |
| 20260504210042 | 85 | 262 | 10.0 | 18.0 | 0.00 | 0.00 | 0.00 | 21 | 1000.8 |
| 20260504204542 | 85 | 297 | 17.0 | 22.0 | 0.00 | 0.00 | 0.00 | 19 | 1000.9 |
| 20260504203051 | 85 | 291 | 4.0 | 18.0 | 0.00 | 0.00 | 0.00 | 25 | 1000.9 |
| 20260504201543 | 85 | 304 | 13.0 | 20.0 | 0.00 | 0.00 | 0.00 | 24 | 1001.1 |
| 20260504200042 | 85 | 309 | 13.0 | 18.0 | 0.00 | 0.00 | 0.00 | 24 | 1001.0 |
| 20260504194544 | 85 | 311 | 16.0 | 21.0 | 0.00 | 0.00 | 0.00 | 24 | 1001.0 |
| 20260504193041 | 85 | 303 | 9.0 | 18.0 | 0.00 | 0.00 | 0.00 | 26 | 1001.1 |
| 20260504191546 | 84 | 305 | 6.0 | 15.0 | 0.00 | 0.00 | 0.00 | 27 | 1001.1 |
| 20260504190047 | 83 | 299 | 5.0 | 20.0 | 0.00 | 0.00 | 0.00 | 27 | 1001.0 |
| 20260504184546 | 84 | 296 | 4.0 | 12.0 | 0.00 | 0.00 | 0.00 | 32 | 1001.1 |
| 20260504183044 | 84 | 295 | 5.0 | 15.0 | 0.00 | 0.00 | 0.00 | 29 | 1001.1 |
| 20260504181543 | 83 | 322 | 7.0 | 13.0 | 0.00 | 0.00 | 0.00 | 26 | 1001.3 |
| 20260504180047 | 83 | 20 | 10.0 | 13.0 | 0.00 | 0.00 | 0.00 | 28 | 1001.3 |
| 20260504174547 | 83 | 273 | 3.0 | 16.0 | 0.00 | 0.00 | 0.00 | 30 | 1001.4 |
| 20260504173042 | 82 | 277 | 7.0 | 11.0 | 0.00 | 0.00 | 0.00 | 33 | 1001.5 |
| 20260504171544 | 81 | 160 | 2.0 | 11.0 | 0.00 | 0.00 | 0.00 | 37 | 1001.6 |
| 20260504081551 | 56 | 126 | 2.0 | 3.0 | 0.00 | 0.00 | 0.00 | 63 | 1004.3 |
| 20260504044539 | 60 | 78 | 2.0 | 4.0 | 0.00 | 0.00 | 0.00 | 53 | 1006.3 |
| 20260504043048 | 62 | 106 | 2.0 | 3.0 | 0.00 | 0.00 | 0.00 | 50 | 1006.9 |
| 20260504041542 | 62 | 77 | 3.0 | 3.0 | 0.00 | 0.00 | 0.00 | 50 | 1007.3 |
| 20260504040100 | 60 | 103 | 0.0 | 2.0 | 0.00 | 0.00 | 0.00 | 54 | 1007.7 |
| 20260504034545 | 62 | 97 | 2.0 | 3.0 | 0.00 | 0.00 | 0.00 | 49 | 1008.0 |
| 20260504033040 | 63 | 0 | 1.0 | 2.0 | 0.00 | 0.00 | 0.00 | 48 | 1008.4 |
| 20260504031540 | 65 | 0 | 0.0 | 2.0 | 0.00 | 0.00 | 0.00 | 42 | 1008.0 |
| 20260504030038 | 65 | 0 | 0.0 | 2.0 | 0.00 | 0.00 | 0.00 | 42 | 1007.7 |